Location: Санкт-Петербург
(59.9358°N, 30.3401°E)
Time: 04:16:10
(UTC+03:00)

ISS - Pass Details

Date: 04 February 2021
Orbit: 417 x 422 km, 51.6° (Epoch: 17 May)

Event Time Altitude Azimuth Distance (km) Brightness Sun altitude
Rises 18:19:03 0° 261° (W) 2,374 2.2 -7.3°
Reaches altitude 10° 18:21:57 10° 234° (SW) 1,509 0.5 -7.7°
Maximum altitude 18:23:42 14° 203° (SSW) 1,311 -0.6 -7.9°
Drops below altitude 10° 18:25:27 10° 171° (S) 1,508 -0.8 -8.1°
Enters shadow 18:30:31 -6° 135° (SE) 3,172 0.4 -8.7°
